Time,TemperatureF,DewpointF,PressureIn,WindDirection,WindDirectionDegrees,WindSpeedMPH,WindSpeedGustMPH,Humidity,HourlyPrecipIn,Conditions,Clouds,dailyrainin,SoftwareType,DateUTC
2013-01-30 00:00:00,33.3,31.8,30.24,NNE,24,0.0,0.0,94,0.05,,OVC150,0.00,VWS V14.01,2013-01-30 05:00:00,
2013-01-30 00:02:00,33.3,31.8,30.24,NNE,24,0.0,0.0,94,0.05,,FEW060,0.01,VWS V14.01,2013-01-30 05:02:00,
2013-01-30 00:03:00,33.3,31.8,30.24,NNE,24,0.0,0.0,94,0.05,,FEW060,0.01,VWS V14.01,2013-01-30 05:03:00,
2013-01-30 00:08:00,33.3,31.8,30.24,NNE,24,0.0,0.0,94,0.05,,FEW060,0.01,VWS V14.01,2013-01-30 05:08:00,
2013-01-30 00:10:00,33.3,31.8,30.24,NNE,24,0.0,0.0,94,0.05,,OVC150,0.01,VWS V14.01,2013-01-30 05:10:00,
2013-01-30 00:13:00,33.4,31.9,30.24,NNE,24,0.0,0.0,94,0.04,,FEW060,0.01,VWS V14.01,2013-01-30 05:13:00,
2013-01-30 00:18:00,33.4,31.9,30.23,NNE,24,0.0,0.0,94,0.04,,FEW060,0.01,VWS V14.01,2013-01-30 05:18:00,
2013-01-30 00:20:00,33.4,31.9,30.23,NNE,24,0.0,0.0,94,0.04,,OVC150,0.01,VWS V14.01,2013-01-30 05:20:00,
2013-01-30 00:23:00,33.4,31.9,30.23,NNE,24,0.0,0.0,94,0.05,,FEW060,0.02,VWS V14.01,2013-01-30 05:23:00,
2013-01-30 00:28:00,33.3,31.8,30.23,NNE,24,0.0,0.0,94,0.05,,FEW060,0.02,VWS V14.01,2013-01-30 05:28:00,
2013-01-30 00:30:00,33.3,31.8,30.23,NNE,24,0.0,0.0,94,0.05,,OVC150,0.02,VWS V14.01,2013-01-30 05:30:00,
2013-01-30 00:33:00,33.3,31.8,30.23,NNE,24,0.0,0.0,94,0.05,,FEW060,0.03,VWS V14.01,2013-01-30 05:33:00,
2013-01-30 00:38:00,33.3,31.8,30.23,NNE,24,0.0,0.0,94,0.05,,FEW060,0.03,VWS V14.01,2013-01-30 05:38:00,
2013-01-30 00:40:00,33.3,31.8,30.23,NNE,24,0.0,0.0,94,0.05,,OVC150,0.03,VWS V14.01,2013-01-30 05:40:00,
2013-01-30 00:43:00,33.2,31.7,30.23,NNE,24,0.0,0.0,94,0.04,,FEW060,0.03,VWS V14.01,2013-01-30 05:43:00,
2013-01-30 00:48:00,33.2,31.7,30.22,NNE,24,0.0,0.0,94,0.04,,FEW060,0.03,VWS V14.01,2013-01-30 05:48:00,
2013-01-30 00:50:00,33.2,31.7,30.22,NNE,24,0.0,0.0,94,0.04,,OVC150,0.03,VWS V14.01,2013-01-30 05:50:00,
2013-01-30 00:53:00,33.2,31.7,30.22,NNE,24,0.0,0.0,94,0.05,,FEW060,0.04,VWS V14.01,2013-01-30 05:53:00,
2013-01-30 00:58:00,33.2,31.7,30.21,NNE,24,0.0,1.0,94,0.05,,FEW060,0.04,VWS V14.01,2013-01-30 05:58:00,
2013-01-30 01:00:00,33.2,31.7,30.21,NNE,24,0.0,1.0,94,0.05,,OVC150,0.04,VWS V14.01,2013-01-30 06:00:00,
2013-01-30 01:03:00,33.2,31.7,30.21,NNE,24,0.0,0.0,94,0.04,,FEW060,0.04,VWS V14.01,2013-01-30 06:03:00,
2013-01-30 01:08:00,33.2,31.7,30.21,NNE,24,0.0,0.0,94,0.04,,FEW060,0.04,VWS V14.01,2013-01-30 06:08:00,
2013-01-30 01:10:00,33.2,31.7,30.21,NNE,24,0.0,0.0,94,0.04,,OVC150,0.04,VWS V14.01,2013-01-30 06:10:00,
2013-01-30 01:13:00,33.3,31.8,30.20,NNE,24,0.0,0.0,94,0.03,,FEW060,0.04,VWS V14.01,2013-01-30 06:13:00,
2013-01-30 01:18:00,33.3,31.8,30.20,NNE,24,0.0,0.0,94,0.03,,BKN055,0.04,VWS V14.01,2013-01-30 06:18:00,
2013-01-30 01:20:00,33.3,31.8,30.21,NNE,24,0.0,0.0,94,0.03,,OVC150,0.04,VWS V14.01,2013-01-30 06:20:00,
2013-01-30 01:23:00,33.3,31.8,30.20,NNE,24,0.0,0.0,94,0.03,,BKN055,0.04,VWS V14.01,2013-01-30 06:23:00,
2013-01-30 01:28:00,33.3,31.8,30.20,NNE,24,0.0,0.0,94,0.03,,BKN055,0.04,VWS V14.01,2013-01-30 06:28:00,
2013-01-30 01:30:00,33.4,31.9,30.20,NNE,24,0.0,0.0,94,0.03,,OVC150,0.04,VWS V14.01,2013-01-30 06:30:00,
2013-01-30 01:33:00,33.4,31.9,30.21,NNE,24,0.0,0.0,94,0.02,,BKN055,0.04,VWS V14.01,2013-01-30 06:33:00,
2013-01-30 01:38:00,33.3,31.8,30.20,NNE,24,0.0,0.0,94,0.02,,BKN055,0.04,VWS V14.01,2013-01-30 06:38:00,
2013-01-30 01:40:00,33.3,31.8,30.20,NNE,24,0.0,0.0,94,0.02,,OVC150,0.04,VWS V14.01,2013-01-30 06:40:00,
2013-01-30 01:43:00,33.3,31.8,30.20,NNE,24,0.0,0.0,94,0.01,,BKN055,0.04,VWS V14.01,2013-01-30 06:43:00,
2013-01-30 01:48:00,33.3,31.8,30.20,NNE,24,0.0,0.0,94,0.01,,BKN055,0.04,VWS V14.01,2013-01-30 06:48:00,
2013-01-30 01:50:00,33.3,31.8,30.20,NNE,24,0.0,0.0,94,0.01,,OVC150,0.04,VWS V14.01,2013-01-30 06:50:00,
2013-01-30 01:53:00,33.3,31.8,30.20,NNE,24,0.0,0.0,94,0.02,,BKN055,0.05,VWS V14.01,2013-01-30 06:53:00,
2013-01-30 01:58:00,33.3,31.8,30.20,NNE,24,0.0,0.0,94,0.02,,BKN055,0.05,VWS V14.01,2013-01-30 06:58:00,
2013-01-30 02:00:00,33.3,31.8,30.20,NNE,24,0.0,0.0,94,0.02,,OVC150,0.05,VWS V14.01,2013-01-30 07:00:00,
2013-01-30 02:03:00,33.3,31.8,30.19,NNE,24,0.0,0.0,94,0.01,,CLR,0.05,VWS V14.01,2013-01-30 07:03:00,
2013-01-30 02:08:00,33.4,31.9,30.19,NNE,24,0.0,0.0,94,0.01,,CLR,0.05,VWS V14.01,2013-01-30 07:08:00,
2013-01-30 02:10:00,33.4,31.9,30.19,NNE,24,0.0,0.0,94,0.01,,OVC150,0.05,VWS V14.01,2013-01-30 07:10:00,
2013-01-30 02:13:00,33.4,31.9,30.19,NNE,24,0.0,0.0,94,0.01,,CLR,0.05,VWS V14.01,2013-01-30 07:13:00,
2013-01-30 02:18:00,33.4,31.9,30.18,NNE,24,0.0,0.0,94,0.01,,CLR,0.05,VWS V14.01,2013-01-30 07:18:00,
2013-01-30 02:20:00,33.4,31.9,30.18,NNE,24,0.0,0.0,94,0.01,,OVC150,0.05,VWS V14.01,2013-01-30 07:20:00,
2013-01-30 02:23:00,33.4,31.9,30.18,NNE,24,0.0,0.0,94,0.01,,CLR,0.05,VWS V14.01,2013-01-30 07:23:00,
2013-01-30 02:28:00,33.4,31.9,30.17,NNE,24,0.0,0.0,94,0.01,,CLR,0.05,VWS V14.01,2013-01-30 07:28:00,
2013-01-30 02:30:00,33.4,31.9,30.17,NNE,24,0.0,0.0,94,0.01,,OVC150,0.05,VWS V14.01,2013-01-30 07:30:00,
2013-01-30 02:33:00,33.3,31.8,30.17,NNE,24,0.0,0.0,94,0.01,,CLR,0.05,VWS V14.01,2013-01-30 07:33:00,
2013-01-30 02:38:00,33.3,31.8,30.16,NNE,24,0.0,0.0,94,0.01,,CLR,0.05,VWS V14.01,2013-01-30 07:38:00,
2013-01-30 02:40:00,33.3,31.8,30.16,NNE,24,0.0,0.0,94,0.01,,OVC150,0.05,VWS V14.01,2013-01-30 07:40:00,
2013-01-30 02:43:00,33.3,31.8,30.17,NNE,24,0.0,0.0,94,0.01,,CLR,0.05,VWS V14.01,2013-01-30 07:43:00,
2013-01-30 02:48:00,33.4,31.9,30.16,NNE,24,0.0,0.0,94,0.01,,CLR,0.05,VWS V14.01,2013-01-30 07:48:00,
2013-01-30 02:50:00,33.4,32.1,30.16,NNE,24,0.0,0.0,95,0.01,,OVC150,0.05,VWS V14.01,2013-01-30 07:50:00,
2013-01-30 02:53:00,33.4,31.9,30.16,NNE,24,0.0,0.0,94,0.01,,CLR,0.05,VWS V14.01,2013-01-30 07:53:00,
2013-01-30 02:58:00,33.3,31.8,30.15,NNE,24,0.0,0.0,94,0.01,,CLR,0.05,VWS V14.01,2013-01-30 07:58:00,
2013-01-30 03:00:00,33.3,31.8,30.15,NNE,24,0.0,0.0,94,0.01,,OVC150,0.05,VWS V14.01,2013-01-30 08:00:00,
2013-01-30 03:03:00,33.3,31.8,30.15,NNE,24,0.0,0.0,94,0.00,,CLR,0.05,VWS V14.01,2013-01-30 08:03:00,
2013-01-30 03:08:00,33.2,31.7,30.15,NNE,24,0.0,0.0,94,0.00,,CLR,0.05,VWS V14.01,2013-01-30 08:08:00,
2013-01-30 03:10:00,33.2,31.7,30.15,NNE,24,0.0,0.0,94,0.00,,OVC150,0.05,VWS V14.01,2013-01-30 08:10:00,
2013-01-30 03:13:00,33.2,31.7,30.14,NNE,24,0.0,0.0,94,0.00,,CLR,0.05,VWS V14.01,2013-01-30 08:13:00,
2013-01-30 03:18:00,33.2,31.7,30.14,NNE,24,0.0,0.0,94,0.00,,CLR,0.05,VWS V14.01,2013-01-30 08:18:00,
2013-01-30 03:20:00,33.2,31.7,30.14,NNE,24,0.0,0.0,94,0.00,,OVC150,0.05,VWS V14.01,2013-01-30 08:20:00,
2013-01-30 03:23:00,33.2,31.9,30.14,NNE,24,0.0,0.0,95,0.00,,CLR,0.05,VWS V14.01,2013-01-30 08:23:00,
2013-01-30 03:28:00,33.3,32.0,30.13,NNE,24,0.0,0.0,95,0.00,,CLR,0.05,VWS V14.01,2013-01-30 08:28:00,
2013-01-30 03:30:00,33.3,32.0,30.13,NNE,24,0.0,0.0,95,0.00,,OVC150,0.05,VWS V14.01,2013-01-30 08:30:00,
2013-01-30 03:33:00,33.4,32.1,30.13,NNE,24,0.0,0.0,95,0.00,,CLR,0.05,VWS V14.01,2013-01-30 08:33:00,
2013-01-30 03:38:00,33.3,32.0,30.13,NNE,24,0.0,0.0,95,0.00,,CLR,0.05,VWS V14.01,2013-01-30 08:38:00,
2013-01-30 03:40:00,33.3,32.0,30.13,NNE,24,0.0,0.0,95,0.00,,OVC150,0.05,VWS V14.01,2013-01-30 08:40:00,
2013-01-30 03:43:00,33.3,32.0,30.13,NNE,24,0.0,0.0,95,0.00,,CLR,0.05,VWS V14.01,2013-01-30 08:43:00,
2013-01-30 03:48:00,33.3,32.0,30.13,NNE,24,0.0,0.0,95,0.00,,CLR,0.05,VWS V14.01,2013-01-30 08:48:00,
2013-01-30 03:50:00,33.3,32.0,30.13,NNE,24,0.0,0.0,95,0.00,,OVC150,0.05,VWS V14.01,2013-01-30 08:50:00,
2013-01-30 03:53:00,33.3,32.0,30.12,NNE,24,0.0,0.0,95,0.00,,CLR,0.05,VWS V14.01,2013-01-30 08:53:00,
2013-01-30 03:58:00,33.3,32.0,30.12,NNE,24,0.0,0.0,95,0.00,,CLR,0.05,VWS V14.01,2013-01-30 08:58:00,
2013-01-30 04:00:00,33.4,32.1,30.12,NNE,24,0.0,0.0,95,0.00,,OVC150,0.05,VWS V14.01,2013-01-30 09:00:00,
2013-01-30 04:03:00,33.4,32.1,30.12,NNE,24,0.0,0.0,95,0.00,,CLR,0.05,VWS V14.01,2013-01-30 09:03:00,
2013-01-30 04:08:00,33.5,32.2,30.11,NNE,24,0.0,0.0,95,0.00,,CLR,0.05,VWS V14.01,2013-01-30 09:08:00,
2013-01-30 04:10:00,33.5,32.2,30.11,NNE,24,0.0,0.0,95,0.00,,OVC150,0.05,VWS V14.01,2013-01-30 09:10:00,
2013-01-30 04:13:00,33.5,32.2,30.11,NNE,24,0.0,0.0,95,0.00,,CLR,0.05,VWS V14.01,2013-01-30 09:13:00,
2013-01-30 04:18:00,33.7,32.4,30.11,NNE,24,0.0,0.0,95,0.00,,CLR,0.05,VWS V14.01,2013-01-30 09:18:00,
2013-01-30 04:20:00,33.8,32.5,30.11,NNE,24,0.0,0.0,95,0.00,,OVC150,0.05,VWS V14.01,2013-01-30 09:20:00,
2013-01-30 04:23:00,34.1,32.8,30.11,NNE,24,0.0,0.0,95,0.00,,CLR,0.05,VWS V14.01,2013-01-30 09:23:00,
2013-01-30 04:28:00,34.4,33.1,30.11,NNE,24,0.0,0.0,95,0.00,,CLR,0.05,VWS V14.01,2013-01-30 09:28:00,
2013-01-30 04:30:00,34.5,33.2,30.11,NNE,24,0.0,0.0,95,0.00,,OVC150,0.05,VWS V14.01,2013-01-30 09:30:00,
2013-01-30 04:33:00,34.6,33.3,30.11,NNE,24,0.0,0.0,95,0.00,,CLR,0.05,VWS V14.01,2013-01-30 09:33:00,
2013-01-30 04:38:00,34.7,33.4,30.11,NNE,24,0.0,0.0,95,0.00,,CLR,0.05,VWS V14.01,2013-01-30 09:38:00,
2013-01-30 04:40:00,34.7,33.4,30.11,NNE,24,0.0,0.0,95,0.00,,OVC150,0.05,VWS V14.01,2013-01-30 09:40:00,
2013-01-30 04:43:00,34.8,33.5,30.11,NNE,24,0.0,1.0,95,0.00,,CLR,0.05,VWS V14.01,2013-01-30 09:43:00,
2013-01-30 04:48:00,35.0,33.7,30.11,NNE,24,0.0,1.0,95,0.00,,CLR,0.05,VWS V14.01,2013-01-30 09:48:00,
2013-01-30 04:50:00,35.0,33.7,30.10,NNE,24,0.0,1.0,95,0.00,,OVC150,0.05,VWS V14.01,2013-01-30 09:50:00,
2013-01-30 04:53:00,35.1,33.8,30.10,NNE,24,0.0,0.0,95,0.00,,CLR,0.05,VWS V14.01,2013-01-30 09:53:00,
2013-01-30 04:58:00,35.2,33.9,30.10,NNE,24,0.0,0.0,95,0.00,,CLR,0.05,VWS V14.01,2013-01-30 09:58:00,
2013-01-30 05:00:00,35.2,33.9,30.10,NNE,24,0.0,0.0,95,0.00,,OVC150,0.05,VWS V14.01,2013-01-30 10:00:00,
2013-01-30 05:03:00,35.3,34.0,30.10,NNE,24,0.0,0.0,95,0.00,,FEW250,0.05,VWS V14.01,2013-01-30 10:03:00,
2013-01-30 05:08:00,35.6,34.3,30.10,NNE,24,0.0,1.0,95,0.00,,FEW250,0.05,VWS V14.01,2013-01-30 10:08:00,
2013-01-30 05:10:00,35.6,34.3,30.10,NNE,24,0.0,1.0,95,0.00,,OVC150,0.05,VWS V14.01,2013-01-30 10:10:00,
2013-01-30 05:13:00,35.7,34.4,30.09,NNE,24,0.0,0.0,95,0.00,,FEW250,0.05,VWS V14.01,2013-01-30 10:13:00,
2013-01-30 05:18:00,35.7,34.4,30.09,NNE,24,0.0,0.0,95,0.00,,FEW250,0.05,VWS V14.01,2013-01-30 10:18:00,
2013-01-30 05:20:00,35.8,34.5,30.09,NNE,24,0.0,0.0,95,0.00,,OVC150,0.05,VWS V14.01,2013-01-30 10:20:00,
2013-01-30 05:23:00,35.8,34.5,30.09,NNE,24,0.0,0.0,95,0.00,,FEW250,0.05,VWS V14.01,2013-01-30 10:23:00,
2013-01-30 05:28:00,35.9,34.6,30.08,NNE,24,0.0,0.0,95,0.00,,FEW250,0.05,VWS V14.01,2013-01-30 10:28:00,
2013-01-30 05:30:00,36.0,34.7,30.08,NNE,24,0.0,0.0,95,0.00,,OVC150,0.05,VWS V14.01,2013-01-30 10:30:00,
2013-01-30 05:33:00,36.0,34.7,30.08,NNE,24,0.0,0.0,95,0.00,,FEW250,0.05,VWS V14.01,2013-01-30 10:33:00,
2013-01-30 05:38:00,36.0,34.7,30.08,NNE,24,0.0,0.0,95,0.00,,FEW250,0.05,VWS V14.01,2013-01-30 10:38:00,
2013-01-30 05:40:00,36.0,34.7,30.08,NNE,24,0.0,0.0,95,0.00,,OVC150,0.05,VWS V14.01,2013-01-30 10:40:00,
2013-01-30 05:43:00,36.0,34.7,30.08,NNE,24,0.0,0.0,95,0.00,,FEW250,0.05,VWS V14.01,2013-01-30 10:43:00,
2013-01-30 05:48:00,36.2,34.9,30.08,NNE,24,0.0,1.0,95,0.00,,FEW250,0.05,VWS V14.01,2013-01-30 10:48:00,
2013-01-30 05:50:00,36.2,34.9,30.08,NNE,24,0.0,1.0,95,0.00,,OVC150,0.05,VWS V14.01,2013-01-30 10:50:00,
2013-01-30 05:53:00,36.3,35.0,30.08,NNE,24,0.0,0.0,95,0.00,,FEW250,0.05,VWS V14.01,2013-01-30 10:53:00,
2013-01-30 05:58:00,36.5,35.2,30.08,NNE,24,0.0,0.0,95,0.00,,FEW250,0.05,VWS V14.01,2013-01-30 10:58:00,
2013-01-30 06:00:00,36.6,35.3,30.08,NNE,24,0.0,0.0,95,0.00,,OVC150,0.05,VWS V14.01,2013-01-30 11:00:00,
2013-01-30 06:03:00,36.7,35.4,30.08,NNE,24,0.0,0.0,95,0.00,,FEW075,0.05,VWS V14.01,2013-01-30 11:03:00,
2013-01-30 06:08:00,36.8,35.5,30.07,NNE,24,0.0,0.0,95,0.00,,FEW075,0.05,VWS V14.01,2013-01-30 11:08:00,
2013-01-30 06:10:00,36.8,35.5,30.08,NNE,24,0.0,0.0,95,0.00,,OVC150,0.05,VWS V14.01,2013-01-30 11:10:00,
2013-01-30 06:13:00,36.9,35.6,30.08,NNE,24,0.0,0.0,95,0.00,,FEW075,0.05,VWS V14.01,2013-01-30 11:13:00,
2013-01-30 06:18:00,36.9,35.6,30.07,NNE,24,0.0,0.0,95,0.00,,FEW075,0.05,VWS V14.01,2013-01-30 11:18:00,
2013-01-30 06:20:00,36.9,35.6,30.07,NNE,24,0.0,0.0,95,0.00,,OVC150,0.05,VWS V14.01,2013-01-30 11:20:00,
2013-01-30 06:23:00,36.9,35.6,30.08,NNE,24,0.0,0.0,95,0.00,,FEW075,0.05,VWS V14.01,2013-01-30 11:23:00,
2013-01-30 06:28:00,37.0,35.7,30.07,NNE,24,0.0,0.0,95,0.00,,FEW075,0.05,VWS V14.01,2013-01-30 11:28:00,
2013-01-30 06:30:00,37.0,35.7,30.07,NNE,24,1.0,1.0,95,0.00,,OVC150,0.05,VWS V14.01,2013-01-30 11:30:00,
2013-01-30 06:33:00,37.3,36.0,30.07,NNE,28,0.0,2.0,95,0.00,,FEW075,0.05,VWS V14.01,2013-01-30 11:33:00,
2013-01-30 06:38:00,37.6,36.3,30.07,NNE,28,0.0,2.0,95,0.00,,FEW075,0.05,VWS V14.01,2013-01-30 11:38:00,
2013-01-30 06:40:00,37.7,36.4,30.07,NNE,28,0.0,2.0,95,0.00,,OVC150,0.05,VWS V14.01,2013-01-30 11:40:00,
2013-01-30 06:43:00,37.8,36.5,30.07,NNE,28,0.0,0.0,95,0.00,,FEW075,0.05,VWS V14.01,2013-01-30 11:43:00,
2013-01-30 06:48:00,37.9,36.6,30.06,NNE,28,0.0,2.0,95,0.00,,FEW075,0.05,VWS V14.01,2013-01-30 11:48:00,
2013-01-30 06:50:00,38.0,36.7,30.06,NNE,29,1.0,2.0,95,0.00,,OVC150,0.05,VWS V14.01,2013-01-30 11:50:00,
2013-01-30 06:53:00,38.2,36.9,30.06,ESE,108,1.0,1.0,95,0.00,,FEW075,0.05,VWS V14.01,2013-01-30 11:53:00,
2013-01-30 06:58:00,38.5,37.2,30.06,ESE,112,0.0,4.0,95,0.00,,FEW075,0.05,VWS V14.01,2013-01-30 11:58:00,
2013-01-30 07:00:00,38.6,37.3,30.05,ESE,112,0.0,4.0,95,0.00,,OVC150,0.05,VWS V14.01,2013-01-30 12:00:00,
2013-01-30 07:03:00,38.8,37.5,30.05,East,84,1.0,2.0,95,0.00,,CLR,0.05,VWS V14.01,2013-01-30 12:03:00,
2013-01-30 07:08:00,39.1,37.8,30.05,ESE,111,0.0,2.0,95,0.00,,CLR,0.05,VWS V14.01,2013-01-30 12:08:00,
2013-01-30 07:10:00,39.1,37.8,30.05,ESE,111,0.0,2.0,95,0.00,,OVC150,0.05,VWS V14.01,2013-01-30 12:10:00,
2013-01-30 07:13:00,39.2,37.9,30.05,ESE,111,0.0,2.0,95,0.00,,CLR,0.05,VWS V14.01,2013-01-30 12:13:00,
2013-01-30 07:18:00,39.4,38.1,30.05,SE,134,0.0,4.0,95,0.00,,CLR,0.05,VWS V14.01,2013-01-30 12:18:00,
2013-01-30 07:20:00,39.5,38.2,30.04,SE,134,0.0,4.0,95,0.00,,OVC150,0.05,VWS V14.01,2013-01-30 12:20:00,
2013-01-30 07:23:00,39.5,38.2,30.04,SE,134,0.0,0.0,95,0.00,,CLR,0.05,VWS V14.01,2013-01-30 12:23:00,
2013-01-30 07:28:00,39.6,38.3,30.04,SE,135,0.0,2.0,95,0.00,,CLR,0.05,VWS V14.01,2013-01-30 12:28:00,
2013-01-30 07:30:00,39.7,38.4,30.04,SE,136,0.0,2.0,95,0.00,,OVC150,0.05,VWS V14.01,2013-01-30 12:30:00,
2013-01-30 07:33:00,39.9,38.8,30.03,SE,134,1.0,2.0,96,0.00,,CLR,0.05,VWS V14.01,2013-01-30 12:33:00,
2013-01-30 07:38:00,40.3,39.0,30.03,SSE,160,5.0,5.0,95,0.00,,CLR,0.05,VWS V14.01,2013-01-30 12:38:00,
2013-01-30 07:40:00,40.4,39.1,30.03,SSE,161,0.0,5.0,95,0.00,,OVC150,0.05,VWS V14.01,2013-01-30 12:40:00,
2013-01-30 07:43:00,40.6,39.5,30.02,SSE,150,1.0,4.0,96,0.00,,CLR,0.05,VWS V14.01,2013-01-30 12:43:00,
2013-01-30 07:48:00,40.7,39.7,30.02,SSW,204,0.0,4.0,96,0.00,,CLR,0.05,VWS V14.01,2013-01-30 12:48:00,
2013-01-30 07:50:00,40.9,39.6,30.02,SSW,203,1.0,4.0,95,0.00,,OVC150,0.05,VWS V14.01,2013-01-30 12:50:00,
2013-01-30 07:53:00,41.1,39.8,30.03,SSE,156,0.0,5.0,95,0.00,,CLR,0.05,VWS V14.01,2013-01-30 12:53:00,
2013-01-30 07:58:00,41.3,40.2,30.03,SSE,159,0.0,5.0,96,0.00,,CLR,0.05,VWS V14.01,2013-01-30 12:58:00,
2013-01-30 08:00:00,41.3,40.2,30.03,SSE,159,0.0,5.0,96,0.00,,OVC150,0.05,VWS V14.01,2013-01-30 13:00:00,
2013-01-30 08:03:00,41.3,40.2,30.02,SSE,159,0.0,1.0,96,0.00,,CLR,0.05,VWS V14.01,2013-01-30 13:03:00,
2013-01-30 08:08:00,41.5,40.5,30.02,SSE,157,0.0,8.0,96,0.00,,CLR,0.05,VWS V14.01,2013-01-30 13:08:00,
2013-01-30 08:10:00,41.7,40.4,30.01,South,175,1.0,8.0,95,0.00,,OVC150,0.05,VWS V14.01,2013-01-30 13:10:00,
2013-01-30 08:13:00,42.2,40.9,30.01,SSE,153,1.0,7.0,95,0.00,,CLR,0.05,VWS V14.01,2013-01-30 13:13:00,
2013-01-30 08:18:00,43.0,41.9,30.01,SSW,203,2.0,9.0,96,0.00,,CLR,0.05,VWS V14.01,2013-01-30 13:18:00,
2013-01-30 08:20:00,43.4,42.1,30.01,WSW,254,1.0,9.0,95,0.00,,OVC150,0.05,VWS V14.01,2013-01-30 13:20:00,
2013-01-30 08:23:00,43.7,42.6,30.01,South,185,2.0,3.0,96,0.00,,CLR,0.05,VWS V14.01,2013-01-30 13:23:00,
2013-01-30 08:28:00,44.1,43.0,30.01,SSE,163,1.0,8.0,96,0.00,,CLR,0.05,VWS V14.01,2013-01-30 13:28:00,
2013-01-30 08:30:00,44.3,43.2,30.00,SSE,156,11.0,11.0,96,0.00,,OVC150,0.05,VWS V14.01,2013-01-30 13:30:00,
2013-01-30 08:33:00,44.5,43.4,30.00,SW,228,1.0,11.0,96,0.00,,CLR,0.05,VWS V14.01,2013-01-30 13:33:00,
2013-01-30 08:38:00,44.9,43.8,30.00,West,264,1.0,11.0,96,0.00,,CLR,0.05,VWS V14.01,2013-01-30 13:38:00,
2013-01-30 08:40:00,45.1,44.0,30.00,SE,140,1.0,11.0,96,0.00,,OVC150,0.05,VWS V14.01,2013-01-30 13:40:00,
2013-01-30 08:43:00,45.2,44.1,30.00,SE,143,2.0,5.0,96,0.00,,CLR,0.05,VWS V14.01,2013-01-30 13:43:00,
2013-01-30 08:48:00,45.4,44.3,29.99,SSE,158,0.0,8.0,96,0.00,,CLR,0.05,VWS V14.01,2013-01-30 13:48:00,
2013-01-30 08:50:00,45.5,44.4,30.00,SSE,164,2.0,8.0,96,0.00,,OVC150,0.05,VWS V14.01,2013-01-30 13:50:00,
2013-01-30 08:53:00,45.7,44.6,30.00,SE,138,1.0,7.0,96,0.00,,CLR,0.05,VWS V14.01,2013-01-30 13:53:00,
2013-01-30 08:58:00,46.1,45.0,29.99,ESE,121,1.0,8.0,96,0.00,,CLR,0.05,VWS V14.01,2013-01-30 13:58:00,
2013-01-30 09:00:00,46.2,45.1,29.99,SSW,213,1.0,8.0,96,0.00,,OVC150,0.05,VWS V14.01,2013-01-30 14:00:00,
2013-01-30 09:03:00,46.3,45.2,29.99,SE,124,2.0,6.0,96,0.00,,CLR,0.05,VWS V14.01,2013-01-30 14:03:00,
2013-01-30 09:08:00,46.6,45.5,29.99,South,186,4.0,7.0,96,0.00,,CLR,0.05,VWS V14.01,2013-01-30 14:08:00,
2013-01-30 09:10:00,46.7,45.6,29.98,SSW,211,1.0,7.0,96,0.00,,OVC150,0.05,VWS V14.01,2013-01-30 14:10:00,
2013-01-30 09:13:00,46.9,45.8,29.99,SSW,205,1.0,7.0,96,0.00,,CLR,0.05,VWS V14.01,2013-01-30 14:13:00,
2013-01-30 09:18:00,47.2,46.1,29.98,SE,139,2.0,7.0,96,0.00,,CLR,0.05,VWS V14.01,2013-01-30 14:18:00,
2013-01-30 09:20:00,47.3,46.2,29.98,SE,124,2.0,8.0,96,0.00,,OVC150,0.05,VWS V14.01,2013-01-30 14:20:00,
2013-01-30 09:23:00,47.5,46.4,29.98,SSE,161,2.0,7.0,96,0.00,,CLR,0.05,VWS V14.01,2013-01-30 14:23:00,
2013-01-30 09:28:00,47.7,46.6,29.98,South,173,0.0,7.0,96,0.00,,CLR,0.05,VWS V14.01,2013-01-30 14:28:00,
2013-01-30 09:30:00,47.8,46.7,29.98,South,174,2.0,7.0,96,0.00,,OVC150,0.05,VWS V14.01,2013-01-30 14:30:00,
2013-01-30 09:33:00,48.0,46.9,29.98,SW,224,1.0,6.0,96,0.00,,CLR,0.05,VWS V14.01,2013-01-30 14:33:00,
2013-01-30 09:38:00,48.2,47.1,29.97,SSE,167,0.0,6.0,96,0.00,,CLR,0.05,VWS V14.01,2013-01-30 14:38:00,
2013-01-30 09:40:00,48.3,47.2,29.97,SSE,167,1.0,6.0,96,0.00,,OVC150,0.05,VWS V14.01,2013-01-30 14:40:00,
2013-01-30 09:43:00,48.3,47.2,29.97,SSE,165,6.0,7.0,96,0.00,,CLR,0.05,VWS V14.01,2013-01-30 14:43:00,
2013-01-30 09:48:00,48.5,47.4,29.97,SSE,159,0.0,7.0,96,0.00,,CLR,0.05,VWS V14.01,2013-01-30 14:48:00,
2013-01-30 09:50:00,48.6,47.5,29.97,SSE,160,1.0,7.0,96,0.00,,OVC150,0.05,VWS V14.01,2013-01-30 14:50:00,
2013-01-30 09:53:00,48.7,47.6,29.97,SSE,160,0.0,4.0,96,0.00,,CLR,0.05,VWS V14.01,2013-01-30 14:53:00,
2013-01-30 09:58:00,48.7,47.6,29.96,SSE,160,0.0,4.0,96,0.00,,CLR,0.05,VWS V14.01,2013-01-30 14:58:00,
2013-01-30 10:00:00,48.7,47.6,29.96,SSE,160,0.0,4.0,96,0.00,,OVC150,0.05,VWS V14.01,2013-01-30 15:00:00,
2013-01-30 10:03:00,48.7,47.6,29.96,SSE,160,0.0,1.0,96,0.00,,FEW018,0.05,VWS V14.01,2013-01-30 15:03:00,
2013-01-30 10:08:00,48.7,47.6,29.96,SSE,160,1.0,5.0,96,0.00,,FEW018,0.05,VWS V14.01,2013-01-30 15:08:00,
2013-01-30 10:10:00,48.7,47.6,29.96,SSE,160,0.0,5.0,96,0.00,,OVC150,0.05,VWS V14.01,2013-01-30 15:10:00,
2013-01-30 10:13:00,48.7,47.6,29.96,SSE,160,0.0,2.0,96,0.00,,FEW018,0.05,VWS V14.01,2013-01-30 15:13:00,
2013-01-30 10:18:00,48.7,47.6,29.96,SSE,160,0.0,5.0,96,0.00,,FEW018,0.05,VWS V14.01,2013-01-30 15:18:00,
2013-01-30 10:20:00,48.7,47.6,29.96,SSE,160,0.0,5.0,96,0.00,,OVC150,0.05,VWS V14.01,2013-01-30 15:20:00,
2013-01-30 10:23:00,48.9,47.8,29.96,SSE,160,0.0,1.0,96,0.00,,FEW018,0.05,VWS V14.01,2013-01-30 15:23:00,
2013-01-30 10:28:00,49.4,48.3,29.95,SSE,164,1.0,5.0,96,0.00,,FEW018,0.05,VWS V14.01,2013-01-30 15:28:00,
2013-01-30 10:30:00,49.6,48.5,29.94,SSE,164,0.0,5.0,96,0.00,,OVC150,0.05,VWS V14.01,2013-01-30 15:30:00,
2013-01-30 10:33:00,50.0,48.9,29.95,SSE,163,0.0,7.0,96,0.00,,FEW018,0.05,VWS V14.01,2013-01-30 15:33:00,
2013-01-30 10:38:00,50.6,49.5,29.94,SSE,168,2.0,7.0,96,0.00,,FEW018,0.05,VWS V14.01,2013-01-30 15:38:00,
2013-01-30 10:40:00,50.9,49.8,29.94,SSE,167,1.0,7.0,96,0.00,,OVC150,0.05,VWS V14.01,2013-01-30 15:40:00,
2013-01-30 10:43:00,51.2,50.1,29.94,South,170,1.0,6.0,96,0.00,,FEW018,0.05,VWS V14.01,2013-01-30 15:43:00,
2013-01-30 10:48:00,51.6,50.5,29.94,SSE,167,5.0,6.0,96,0.00,,FEW018,0.05,VWS V14.01,2013-01-30 15:48:00,
2013-01-30 10:50:00,51.8,50.7,29.94,SSW,192,2.0,6.0,96,0.00,,OVC150,0.05,VWS V14.01,2013-01-30 15:50:00,
2013-01-30 10:53:00,52.0,50.9,29.93,South,176,1.0,5.0,96,0.00,,FEW018,0.05,VWS V14.01,2013-01-30 15:53:00,
2013-01-30 10:58:00,52.2,51.1,29.93,South,170,0.0,5.0,96,0.00,,FEW018,0.05,VWS V14.01,2013-01-30 15:58:00,
2013-01-30 11:00:00,52.3,51.2,29.92,SW,221,1.0,10.0,96,0.00,,OVC150,0.05,VWS V14.01,2013-01-30 16:00:00,
2013-01-30 11:03:00,52.4,51.3,29.92,SE,146,7.0,9.0,96,0.00,,FEW027,0.05,VWS V14.01,2013-01-30 16:03:00,
2013-01-30 11:08:00,52.7,51.6,29.92,South,173,7.0,11.0,96,0.00,,FEW027,0.05,VWS V14.01,2013-01-30 16:08:00,
2013-01-30 11:10:00,52.8,51.7,29.91,SSE,153,6.0,11.0,96,0.00,,OVC150,0.05,VWS V14.01,2013-01-30 16:10:00,
2013-01-30 11:13:00,52.9,51.8,29.91,SSE,162,4.0,8.0,96,0.00,,FEW027,0.05,VWS V14.01,2013-01-30 16:13:00,
2013-01-30 11:18:00,53.0,51.9,29.90,SSE,154,4.0,8.0,96,0.00,,FEW027,0.05,VWS V14.01,2013-01-30 16:18:00,
2013-01-30 11:20:00,53.0,51.9,29.89,SSW,198,0.0,8.0,96,0.00,,OVC150,0.05,VWS V14.01,2013-01-30 16:20:00,
2013-01-30 11:23:00,53.1,52.0,29.89,South,171,6.0,9.0,96,0.00,,FEW027,0.05,VWS V14.01,2013-01-30 16:23:00,
2013-01-30 11:28:00,53.2,52.1,29.88,SSW,198,7.0,9.0,96,0.00,,FEW027,0.05,VWS V14.01,2013-01-30 16:28:00,
2013-01-30 11:30:00,53.2,52.1,29.88,South,171,5.0,9.0,96,0.00,,OVC150,0.05,VWS V14.01,2013-01-30 16:30:00,
2013-01-30 11:33:00,53.2,52.1,29.88,SSW,193,8.0,8.0,96,0.00,,FEW027,0.05,VWS V14.01,2013-01-30 16:33:00,
2013-01-30 11:38:00,53.4,52.3,29.87,SSE,164,2.0,11.0,96,0.00,,FEW027,0.05,VWS V14.01,2013-01-30 16:38:00,
2013-01-30 11:40:00,53.5,52.4,29.87,SSE,159,1.0,11.0,96,0.00,,OVC150,0.05,VWS V14.01,2013-01-30 16:40:00,
2013-01-30 11:43:00,53.6,52.5,29.87,SSE,151,5.0,10.0,96,0.00,,FEW027,0.05,VWS V14.01,2013-01-30 16:43:00,
2013-01-30 11:48:00,53.7,52.6,29.86,South,184,0.0,10.0,96,0.00,,FEW027,0.05,VWS V14.01,2013-01-30 16:48:00,
2013-01-30 11:50:00,53.7,52.6,29.86,South,173,1.0,10.0,96,0.00,,OVC150,0.05,VWS V14.01,2013-01-30 16:50:00,
2013-01-30 11:53:00,53.6,52.5,29.86,North,349,1.0,4.0,96,0.00,,FEW027,0.05,VWS V14.01,2013-01-30 16:53:00,
2013-01-30 11:58:00,53.5,52.4,29.86,SSE,167,4.0,9.0,96,0.00,,FEW027,0.05,VWS V14.01,2013-01-30 16:58:00,
2013-01-30 12:00:00,53.4,52.3,29.86,ESE,117,0.0,9.0,96,0.00,,OVC150,0.05,VWS V14.01,2013-01-30 17:00:00,
2013-01-30 12:03:00,53.3,51.9,29.85,ESE,116,1.0,4.0,95,0.00,,SCT031,0.05,VWS V14.01,2013-01-30 17:03:00,
2013-01-30 12:08:00,53.1,51.7,29.85,SE,144,0.0,5.0,95,0.00,,SCT031,0.05,VWS V14.01,2013-01-30 17:08:00,
2013-01-30 12:10:00,53.1,51.7,29.84,SSE,156,0.0,5.0,95,0.00,,OVC150,0.05,VWS V14.01,2013-01-30 17:10:00,
2013-01-30 12:13:00,53.1,51.7,29.84,SSE,157,0.0,5.0,95,0.00,,SCT031,0.05,VWS V14.01,2013-01-30 17:13:00,
2013-01-30 12:18:00,53.1,51.7,29.83,SSE,159,5.0,5.0,95,0.00,,SCT031,0.05,VWS V14.01,2013-01-30 17:18:00,
2013-01-30 12:20:00,53.1,51.7,29.83,SSE,148,0.0,6.0,95,0.00,,OVC150,0.05,VWS V14.01,2013-01-30 17:20:00,
2013-01-30 12:23:00,53.2,51.8,29.83,SSW,206,6.0,6.0,95,0.00,,SCT031,0.05,VWS V14.01,2013-01-30 17:23:00,
2013-01-30 12:28:00,53.2,51.8,29.83,SSE,161,0.0,7.0,95,0.00,,SCT031,0.05,VWS V14.01,2013-01-30 17:28:00,
2013-01-30 12:30:00,53.2,51.8,29.83,SSE,153,2.0,7.0,95,0.00,,OVC150,0.05,VWS V14.01,2013-01-30 17:30:00,
2013-01-30 12:33:00,53.3,51.9,29.83,South,183,0.0,6.0,95,0.00,,SCT031,0.05,VWS V14.01,2013-01-30 17:33:00,
2013-01-30 12:38:00,53.3,51.9,29.82,SSE,165,0.0,6.0,95,0.00,,SCT031,0.05,VWS V14.01,2013-01-30 17:38:00,
2013-01-30 12:40:00,53.4,52.0,29.83,South,190,4.0,6.0,95,0.00,,OVC150,0.05,VWS V14.01,2013-01-30 17:40:00,
2013-01-30 12:43:00,53.4,52.0,29.82,SE,142,4.0,5.0,95,0.00,,SCT031,0.05,VWS V14.01,2013-01-30 17:43:00,
2013-01-30 12:48:00,54.2,52.8,29.81,SSW,199,7.0,14.0,95,0.00,,SCT031,0.05,VWS V14.01,2013-01-30 17:48:00,
2013-01-30 12:50:00,54.5,53.1,29.81,SSW,202,0.0,14.0,95,0.00,,OVC150,0.05,VWS V14.01,2013-01-30 17:50:00,
2013-01-30 12:53:00,54.7,53.3,29.81,SSE,151,4.0,13.0,95,0.00,,SCT031,0.05,VWS V14.01,2013-01-30 17:53:00,
2013-01-30 12:58:00,55.3,53.9,29.81,SE,129,7.0,13.0,95,0.00,,SCT031,0.05,VWS V14.01,2013-01-30 17:58:00,
2013-01-30 13:00:00,55.6,54.2,29.81,SSW,209,1.0,13.0,95,0.00,,OVC150,0.05,VWS V14.01,2013-01-30 18:00:00,
2013-01-30 13:03:00,55.9,54.5,29.80,South,185,4.0,12.0,95,0.00,,SCT037,0.05,VWS V14.01,2013-01-30 18:03:00,
2013-01-30 13:08:00,56.3,54.9,29.79,SSE,154,4.0,12.0,95,0.00,,SCT037,0.05,VWS V14.01,2013-01-30 18:08:00,
2013-01-30 13:10:00,56.4,54.7,29.79,South,176,6.0,13.0,94,0.00,,OVC150,0.05,VWS V14.01,2013-01-30 18:10:00,
2013-01-30 13:13:00,56.7,55.0,29.79,SSW,204,5.0,16.0,94,0.00,,SCT037,0.05,VWS V14.01,2013-01-30 18:13:00,
2013-01-30 13:18:00,57.0,55.0,29.78,SSE,168,4.0,16.0,93,0.00,,SCT037,0.05,VWS V14.01,2013-01-30 18:18:00,
2013-01-30 13:20:00,57.1,55.1,29.78,SE,136,1.0,16.0,93,0.00,,OVC150,0.05,VWS V14.01,2013-01-30 18:20:00,
2013-01-30 13:23:00,57.3,55.0,29.78,SSE,149,6.0,11.0,92,0.00,,SCT037,0.05,VWS V14.01,2013-01-30 18:23:00,
2013-01-30 13:28:00,57.6,55.3,29.79,South,176,6.0,14.0,92,0.00,,SCT037,0.05,VWS V14.01,2013-01-30 18:28:00,
2013-01-30 13:30:00,57.7,55.1,29.79,South,178,10.0,17.0,91,0.00,,OVC150,0.05,VWS V14.01,2013-01-30 18:30:00,
2013-01-30 13:33:00,57.9,55.3,29.79,SW,219,1.0,13.0,91,0.00,,SCT037,0.05,VWS V14.01,2013-01-30 18:33:00,
2013-01-30 13:38:00,58.2,55.6,29.79,SSE,167,0.0,13.0,91,0.00,,SCT037,0.05,VWS V14.01,2013-01-30 18:38:00,
2013-01-30 13:40:00,58.3,55.7,29.79,WNW,293,5.0,13.0,91,0.00,,OVC150,0.05,VWS V14.01,2013-01-30 18:40:00,
2013-01-30 13:43:00,58.4,55.5,29.79,South,188,6.0,10.0,90,0.00,,SCT037,0.05,VWS V14.01,2013-01-30 18:43:00,
2013-01-30 13:48:00,58.5,55.6,29.79,SSE,167,2.0,15.0,90,0.00,,SCT037,0.05,VWS V14.01,2013-01-30 18:48:00,
2013-01-30 13:50:00,58.6,55.7,29.79,ESE,111,4.0,15.0,90,0.00,,OVC150,0.05,VWS V14.01,2013-01-30 18:50:00,
2013-01-30 13:53:00,58.6,55.7,29.78,SSE,159,10.0,17.0,90,0.00,,SCT037,0.05,VWS V14.01,2013-01-30 18:53:00,
2013-01-30 13:58:00,58.7,55.8,29.78,SSE,147,1.0,17.0,90,0.00,,SCT037,0.05,VWS V14.01,2013-01-30 18:58:00,
2013-01-30 14:00:00,58.6,55.7,29.78,SSE,159,5.0,17.0,90,0.00,,OVC150,0.05,VWS V14.01,2013-01-30 19:00:00,
2013-01-30 14:03:00,58.6,55.4,29.78,SE,142,6.0,6.0,89,0.00,,SCT250,0.05,VWS V14.01,2013-01-30 19:03:00,
2013-01-30 14:08:00,58.5,55.6,29.78,SSW,193,2.0,9.0,90,0.00,,SCT250,0.05,VWS V14.01,2013-01-30 19:08:00,
2013-01-30 14:10:00,58.5,55.6,29.78,SSW,200,1.0,15.0,90,0.00,,OVC150,0.05,VWS V14.01,2013-01-30 19:10:00,
2013-01-30 14:13:00,58.5,55.6,29.78,SSW,205,2.0,9.0,90,0.00,,SCT250,0.05,VWS V14.01,2013-01-30 19:13:00,
2013-01-30 14:18:00,58.5,55.6,29.78,SSE,163,5.0,11.0,90,0.00,,SCT250,0.05,VWS V14.01,2013-01-30 19:18:00,
2013-01-30 14:20:00,58.5,55.6,29.78,SSE,159,7.0,11.0,90,0.00,,OVC150,0.05,VWS V14.01,2013-01-30 19:20:00,
2013-01-30 14:23:00,58.5,55.6,29.78,SSE,165,1.0,14.0,90,0.00,,SCT250,0.05,VWS V14.01,2013-01-30 19:23:00,
2013-01-30 14:28:00,58.4,55.5,29.78,South,184,4.0,16.0,90,0.00,,SCT250,0.05,VWS V14.01,2013-01-30 19:28:00,
2013-01-30 14:30:00,58.4,55.5,29.78,ESE,104,7.0,16.0,90,0.00,,OVC150,0.05,VWS V14.01,2013-01-30 19:30:00,
2013-01-30 14:33:00,58.5,55.6,29.78,SE,128,6.0,8.0,90,0.00,,SCT250,0.05,VWS V14.01,2013-01-30 19:33:00,
2013-01-30 14:38:00,58.6,55.4,29.78,ESE,115,7.0,11.0,89,0.00,,SCT250,0.05,VWS V14.01,2013-01-30 19:38:00,
2013-01-30 14:40:00,58.6,55.4,29.77,SW,216,3.0,11.0,89,0.00,,OVC150,0.05,VWS V14.01,2013-01-30 19:40:00,
2013-01-30 14:43:00,58.7,55.5,29.77,SSE,162,5.0,11.0,89,0.00,,SCT250,0.05,VWS V14.01,2013-01-30 19:43:00,
2013-01-30 14:48:00,58.8,55.3,29.77,NNW,346,6.0,12.0,88,0.00,,SCT250,0.05,VWS V14.01,2013-01-30 19:48:00,
2013-01-30 14:50:00,58.8,55.3,29.77,SW,221,3.0,14.0,88,0.00,,OVC150,0.05,VWS V14.01,2013-01-30 19:50:00,
2013-01-30 14:53:00,58.8,55.3,29.77,SSE,147,1.0,16.0,88,0.00,,SCT250,0.05,VWS V14.01,2013-01-30 19:53:00,
2013-01-30 14:58:00,58.8,55.3,29.76,SE,139,5.0,16.0,88,0.00,,SCT250,0.05,VWS V14.01,2013-01-30 19:58:00,
2013-01-30 15:00:00,58.8,55.3,29.77,SSW,209,0.0,21.0,88,0.00,,OVC150,0.05,VWS V14.01,2013-01-30 20:00:00,
2013-01-30 15:03:00,58.8,55.3,29.76,SSW,198,4.0,18.0,88,0.00,,SCT250,0.05,VWS V14.01,2013-01-30 20:03:00,
2013-01-30 15:08:00,58.9,55.7,29.76,WSW,250,1.0,18.0,89,0.00,,SCT250,0.05,VWS V14.01,2013-01-30 20:08:00,
2013-01-30 15:10:00,58.9,55.4,29.76,South,174,1.0,18.0,88,0.00,,OVC150,0.05,VWS V14.01,2013-01-30 20:10:00,
2013-01-30 15:13:00,58.9,55.7,29.76,South,185,4.0,19.0,89,0.00,,SCT250,0.05,VWS V14.01,2013-01-30 20:13:00,
2013-01-30 15:18:00,58.9,55.4,29.76,South,173,0.0,19.0,88,0.00,,SCT250,0.05,VWS V14.01,2013-01-30 20:18:00,
2013-01-30 15:20:00,58.9,55.7,29.75,SSW,202,1.0,19.0,89,0.00,,OVC150,0.05,VWS V14.01,2013-01-30 20:20:00,
2013-01-30 15:23:00,58.9,55.7,29.76,SW,226,8.0,18.0,89,0.00,,SCT250,0.05,VWS V14.01,2013-01-30 20:23:00,
2013-01-30 15:28:00,58.9,55.7,29.76,SSE,153,6.0,18.0,89,0.00,,SCT250,0.05,VWS V14.01,2013-01-30 20:28:00,
2013-01-30 15:30:00,59.0,55.8,29.76,North,351,2.0,18.0,89,0.00,,OVC150,0.05,VWS V14.01,2013-01-30 20:30:00,
2013-01-30 15:33:00,58.9,55.7,29.75,SW,214,8.0,15.0,89,0.00,,SCT250,0.05,VWS V14.01,2013-01-30 20:33:00,
2013-01-30 15:38:00,58.8,55.6,29.76,SE,126,6.0,15.0,89,0.00,,SCT250,0.05,VWS V14.01,2013-01-30 20:38:00,
2013-01-30 15:40:00,58.8,55.6,29.76,SE,146,7.0,15.0,89,0.00,,OVC150,0.05,VWS V14.01,2013-01-30 20:40:00,
2013-01-30 15:43:00,58.7,55.5,29.76,South,169,7.0,8.0,89,0.00,,SCT250,0.05,VWS V14.01,2013-01-30 20:43:00,
2013-01-30 15:48:00,58.5,55.6,29.75,South,172,6.0,13.0,90,0.00,,SCT250,0.05,VWS V14.01,2013-01-30 20:48:00,
2013-01-30 15:50:00,58.4,55.5,29.75,SE,141,5.0,13.0,90,0.00,,OVC150,0.05,VWS V14.01,2013-01-30 20:50:00,
2013-01-30 15:53:00,58.3,55.4,29.75,West,274,5.0,8.0,90,0.00,,SCT250,0.05,VWS V14.01,2013-01-30 20:53:00,
2013-01-30 15:58:00,58.1,55.2,29.75,SSE,165,4.0,10.0,90,0.00,,SCT250,0.05,VWS V14.01,2013-01-30 20:58:00,
2013-01-30 16:00:00,58.1,55.5,29.75,South,171,2.0,13.0,91,0.00,,OVC150,0.05,VWS V14.01,2013-01-30 21:00:00,
2013-01-30 16:03:00,58.0,55.4,29.75,SSW,208,3.0,15.0,91,0.00,,BKN250,0.05,VWS V14.01,2013-01-30 21:03:00,
2013-01-30 16:08:00,57.8,55.2,29.76,South,169,0.0,15.0,91,0.00,,BKN250,0.05,VWS V14.01,2013-01-30 21:08:00,
2013-01-30 16:10:00,57.8,55.2,29.75,SE,129,4.0,15.0,91,0.00,,OVC150,0.05,VWS V14.01,2013-01-30 21:10:00,
2013-01-30 16:13:00,57.7,55.1,29.75,WSW,248,4.0,18.0,91,0.00,,BKN250,0.05,VWS V14.01,2013-01-30 21:13:00,
2013-01-30 16:18:00,57.7,55.1,29.75,SE,130,6.0,18.0,91,0.00,,BKN250,0.05,VWS V14.01,2013-01-30 21:18:00,
2013-01-30 16:20:00,57.7,55.1,29.76,West,270,1.0,18.0,91,0.00,,OVC150,0.05,VWS V14.01,2013-01-30 21:20:00,
2013-01-30 16:23:00,57.7,55.1,29.76,South,182,6.0,11.0,91,0.00,,BKN250,0.05,VWS V14.01,2013-01-30 21:23:00,
2013-01-30 16:28:00,57.7,55.1,29.76,SSE,161,6.0,15.0,91,0.00,,BKN250,0.05,VWS V14.01,2013-01-30 21:28:00,
2013-01-30 16:30:00,57.7,55.1,29.76,SSE,153,4.0,15.0,91,0.00,,OVC150,0.05,VWS V14.01,2013-01-30 21:30:00,
2013-01-30 16:33:00,57.7,55.1,29.75,SE,144,11.0,13.0,91,0.00,,BKN250,0.05,VWS V14.01,2013-01-30 21:33:00,
2013-01-30 16:38:00,57.8,55.2,29.76,SE,132,2.0,18.0,91,0.00,,BKN250,0.05,VWS V14.01,2013-01-30 21:38:00,
2013-01-30 16:40:00,57.8,55.2,29.75,SE,141,5.0,18.0,91,0.00,,OVC150,0.05,VWS V14.01,2013-01-30 21:40:00,
2013-01-30 16:43:00,57.9,55.3,29.75,SSW,196,3.0,15.0,91,0.00,,BKN250,0.05,VWS V14.01,2013-01-30 21:43:00,
2013-01-30 16:48:00,57.9,55.3,29.75,ESE,109,7.0,15.0,91,0.00,,BKN250,0.05,VWS V14.01,2013-01-30 21:48:00,
2013-01-30 16:50:00,57.9,55.3,29.75,SE,146,6.0,15.0,91,0.00,,OVC150,0.05,VWS V14.01,2013-01-30 21:50:00,
2013-01-30 16:53:00,57.9,55.3,29.75,South,169,7.0,12.0,91,0.00,,BKN250,0.05,VWS V14.01,2013-01-30 21:53:00,
2013-01-30 16:58:00,57.9,55.6,29.75,South,173,2.0,18.0,92,0.00,,BKN250,0.05,VWS V14.01,2013-01-30 21:58:00,
2013-01-30 17:00:00,58.0,55.4,29.75,SSW,193,4.0,18.0,91,0.00,,OVC150,0.05,VWS V14.01,2013-01-30 22:00:00,
2013-01-30 17:03:00,58.0,55.4,29.75,SSW,206,10.0,16.0,91,0.00,,BKN250,0.05,VWS V14.01,2013-01-30 22:03:00,
2013-01-30 17:08:00,58.1,55.5,29.75,East,94,7.0,20.0,91,0.00,,BKN250,0.05,VWS V14.01,2013-01-30 22:08:00,
2013-01-30 17:10:00,58.1,55.5,29.75,SSW,212,3.0,20.0,91,0.00,,OVC150,0.05,VWS V14.01,2013-01-30 22:10:00,
2013-01-30 17:13:00,58.2,55.9,29.75,SE,142,7.0,12.0,92,0.00,,BKN250,0.05,VWS V14.01,2013-01-30 22:13:00,
2013-01-30 17:18:00,58.2,55.6,29.75,South,189,6.0,12.0,91,0.00,,BKN250,0.05,VWS V14.01,2013-01-30 22:18:00,
2013-01-30 17:20:00,58.2,55.6,29.75,SSW,209,2.0,12.0,91,0.00,,OVC150,0.05,VWS V14.01,2013-01-30 22:20:00,
2013-01-30 17:23:00,58.3,55.7,29.75,SSW,204,2.0,6.0,91,0.00,,BKN250,0.05,VWS V14.01,2013-01-30 22:23:00,
2013-01-30 17:28:00,58.4,55.8,29.75,SE,146,2.0,15.0,91,0.00,,BKN250,0.05,VWS V14.01,2013-01-30 22:28:00,
2013-01-30 17:30:00,58.4,55.8,29.75,SE,130,5.0,15.0,91,0.00,,OVC150,0.05,VWS V14.01,2013-01-30 22:30:00,
2013-01-30 17:33:00,58.4,55.8,29.75,SE,126,9.0,11.0,91,0.00,,BKN250,0.05,VWS V14.01,2013-01-30 22:33:00,
2013-01-30 17:38:00,58.4,55.8,29.74,SSW,196,3.0,14.0,91,0.00,,BKN250,0.05,VWS V14.01,2013-01-30 22:38:00,
2013-01-30 17:40:00,58.5,55.9,29.73,SE,136,5.0,14.0,91,0.00,,OVC150,0.05,VWS V14.01,2013-01-30 22:40:00,
2013-01-30 17:43:00,58.5,55.9,29.73,SSE,167,8.0,15.0,91,0.00,,BKN250,0.05,VWS V14.01,2013-01-30 22:43:00,
2013-01-30 17:48:00,58.5,55.9,29.73,South,176,10.0,19.0,91,0.00,,BKN250,0.05,VWS V14.01,2013-01-30 22:48:00,
2013-01-30 17:50:00,58.6,56.0,29.73,SSE,157,6.0,19.0,91,0.00,,OVC150,0.05,VWS V14.01,2013-01-30 22:50:00,
2013-01-30 17:53:00,58.6,56.0,29.73,SSW,201,2.0,14.0,91,0.00,,BKN250,0.05,VWS V14.01,2013-01-30 22:53:00,
2013-01-30 17:58:00,58.7,56.1,29.73,SSE,167,9.0,18.0,91,0.00,,BKN250,0.05,VWS V14.01,2013-01-30 22:58:00,
2013-01-30 18:00:00,58.8,56.2,29.73,SSE,159,9.0,18.0,91,0.00,,OVC150,0.05,VWS V14.01,2013-01-30 23:00:00,
2013-01-30 18:03:00,58.8,56.2,29.73,South,173,8.0,22.0,91,0.00,,BKN250,0.05,VWS V14.01,2013-01-30 23:03:00,
2013-01-30 18:08:00,58.9,56.0,29.72,SW,216,7.0,22.0,90,0.00,,BKN250,0.05,VWS V14.01,2013-01-30 23:08:00,
2013-01-30 18:10:00,58.9,56.0,29.73,SW,229,9.0,22.0,90,0.00,,OVC150,0.05,VWS V14.01,2013-01-30 23:10:00,
2013-01-30 18:13:00,58.9,56.0,29.73,ENE,68,3.0,11.0,90,0.00,,BKN250,0.05,VWS V14.01,2013-01-30 23:13:00,
2013-01-30 18:18:00,59.0,56.1,29.72,SSE,162,2.0,18.0,90,0.00,,BKN250,0.05,VWS V14.01,2013-01-30 23:18:00,
2013-01-30 18:20:00,59.0,56.1,29.72,SSE,157,12.0,18.0,90,0.00,,OVC150,0.05,VWS V14.01,2013-01-30 23:20:00,
2013-01-30 18:23:00,59.1,56.2,29.71,SSE,167,7.0,17.0,90,0.00,,BKN250,0.05,VWS V14.01,2013-01-30 23:23:00,
2013-01-30 18:28:00,59.2,56.0,29.71,SW,215,6.0,17.0,89,0.00,,BKN250,0.05,VWS V14.01,2013-01-30 23:28:00,
2013-01-30 18:30:00,59.2,56.0,29.71,SE,134,5.0,17.0,89,0.00,,OVC150,0.05,VWS V14.01,2013-01-30 23:30:00,
2013-01-30 18:33:00,59.3,56.1,29.71,SE,144,10.0,20.0,89,0.00,,BKN250,0.05,VWS V14.01,2013-01-30 23:33:00,
2013-01-30 18:38:00,59.3,56.1,29.70,South,184,4.0,20.0,89,0.00,,BKN250,0.05,VWS V14.01,2013-01-30 23:38:00,
2013-01-30 18:40:00,59.4,56.2,29.70,SE,130,8.0,20.0,89,0.00,,OVC150,0.05,VWS V14.01,2013-01-30 23:40:00,
2013-01-30 18:43:00,59.4,56.2,29.70,SSE,148,7.0,12.0,89,0.00,,BKN250,0.05,VWS V14.01,2013-01-30 23:43:00,
2013-01-30 18:48:00,59.4,56.2,29.70,SE,142,2.0,17.0,89,0.00,,BKN250,0.05,VWS V14.01,2013-01-30 23:48:00,
2013-01-30 18:50:00,59.4,56.2,29.70,SE,130,0.0,17.0,89,0.00,,OVC150,0.05,VWS V14.01,2013-01-30 23:50:00,
2013-01-30 18:53:00,59.4,56.2,29.70,SSE,166,5.0,13.0,89,0.00,,BKN250,0.05,VWS V14.01,2013-01-30 23:53:00,
2013-01-30 18:58:00,59.6,56.4,29.70,SSE,155,6.0,21.0,89,0.00,,BKN250,0.05,VWS V14.01,2013-01-30 23:58:00,
2013-01-30 19:00:00,59.5,56.3,29.70,NW,306,5.0,21.0,89,0.00,,OVC150,0.05,VWS V14.01,2013-01-31 00:00:00,
2013-01-30 19:03:00,59.5,56.3,29.70,South,182,3.0,17.0,89,0.00,,SCT250,0.05,VWS V14.01,2013-01-31 00:03:00,
2013-01-30 19:08:00,59.5,56.3,29.70,NW,317,5.0,20.0,89,0.00,,SCT250,0.05,VWS V14.01,2013-01-31 00:08:00,
2013-01-30 19:10:00,59.4,56.2,29.71,ESE,117,1.0,20.0,89,0.00,,OVC150,0.05,VWS V14.01,2013-01-31 00:10:00,
2013-01-30 19:13:00,59.4,56.2,29.70,SE,130,14.0,14.0,89,0.00,,SCT250,0.05,VWS V14.01,2013-01-31 00:13:00,
2013-01-30 19:18:00,59.4,56.2,29.70,West,277,4.0,15.0,89,0.00,,SCT250,0.05,VWS V14.01,2013-01-31 00:18:00,
2013-01-30 19:20:00,59.4,56.2,29.70,SSE,161,4.0,15.0,89,0.00,,OVC150,0.05,VWS V14.01,2013-01-31 00:20:00,
2013-01-30 19:23:00,59.4,56.2,29.70,SSE,168,6.0,12.0,89,0.00,,SCT250,0.05,VWS V14.01,2013-01-31 00:23:00,
2013-01-30 19:28:00,59.3,56.1,29.69,SSW,207,4.0,12.0,89,0.00,,SCT250,0.05,VWS V14.01,2013-01-31 00:28:00,
2013-01-30 19:30:00,59.3,56.4,29.70,SSE,167,9.0,13.0,90,0.00,,OVC150,0.05,VWS V14.01,2013-01-31 00:30:00,
2013-01-30 19:33:00,59.2,56.3,29.69,SSW,198,4.0,21.0,90,0.00,,SCT250,0.05,VWS V14.01,2013-01-31 00:33:00,
2013-01-30 19:38:00,59.2,56.3,29.69,SSW,212,4.0,21.0,90,0.00,,SCT250,0.05,VWS V14.01,2013-01-31 00:38:00,
2013-01-30 19:40:00,59.1,56.2,29.69,WNW,297,12.0,21.0,90,0.00,,OVC150,0.05,VWS V14.01,2013-01-31 00:40:00,
2013-01-30 19:43:00,59.1,56.5,29.69,SSW,198,3.0,19.0,91,0.00,,SCT250,0.05,VWS V14.01,2013-01-31 00:43:00,
2013-01-30 19:48:00,58.9,56.3,29.69,SSE,168,5.0,19.0,91,0.00,,SCT250,0.05,VWS V14.01,2013-01-31 00:48:00,
2013-01-30 19:50:00,58.9,56.3,29.69,West,273,3.0,19.0,91,0.00,,OVC150,0.05,VWS V14.01,2013-01-31 00:50:00,
2013-01-30 19:53:00,58.8,56.5,29.69,SSW,212,9.0,10.0,92,0.00,,SCT250,0.05,VWS V14.01,2013-01-31 00:53:00,
2013-01-30 19:58:00,58.7,56.4,29.69,SSE,161,6.0,14.0,92,0.01,,SCT250,0.06,VWS V14.01,2013-01-31 00:58:00,
2013-01-30 20:00:00,58.7,56.4,29.68,NE,53,4.0,14.0,92,0.01,,OVC150,0.06,VWS V14.01,2013-01-31 01:00:00,
2013-01-30 20:03:00,58.7,56.4,29.68,SSE,159,4.0,19.0,92,0.01,,CLR,0.06,VWS V14.01,2013-01-31 01:03:00,
2013-01-30 20:08:00,58.7,56.4,29.68,South,169,4.0,19.0,92,0.01,,CLR,0.06,VWS V14.01,2013-01-31 01:08:00,
2013-01-30 20:10:00,58.8,56.5,29.67,West,260,7.0,19.0,92,0.01,,OVC150,0.06,VWS V14.01,2013-01-31 01:10:00,
2013-01-30 20:13:00,58.8,56.5,29.68,South,190,7.0,10.0,92,0.01,,CLR,0.06,VWS V14.01,2013-01-31 01:13:00,
2013-01-30 20:18:00,58.9,56.6,29.68,SSE,154,9.0,16.0,92,0.02,,CLR,0.07,VWS V14.01,2013-01-31 01:18:00,
2013-01-30 20:20:00,59.0,56.7,29.67,SSW,196,0.0,16.0,92,0.02,,OVC150,0.07,VWS V14.01,2013-01-31 01:20:00,
2013-01-30 20:23:00,59.0,56.7,29.67,South,171,2.0,11.0,92,0.02,,CLR,0.07,VWS V14.01,2013-01-31 01:23:00,
2013-01-30 20:28:00,59.0,56.7,29.67,SSE,167,5.0,15.0,92,0.02,,CLR,0.07,VWS V14.01,2013-01-31 01:28:00,
2013-01-30 20:30:00,59.1,56.8,29.67,NW,312,7.0,18.0,92,0.02,,OVC150,0.07,VWS V14.01,2013-01-31 01:30:00,
2013-01-30 20:33:00,59.1,56.8,29.68,South,177,4.0,18.0,92,0.02,,CLR,0.07,VWS V14.01,2013-01-31 01:33:00,
2013-01-30 20:38:00,59.1,56.8,29.67,SSE,161,8.0,18.0,92,0.02,,CLR,0.07,VWS V14.01,2013-01-31 01:38:00,
2013-01-30 20:40:00,59.2,56.9,29.68,WSW,250,4.0,18.0,92,0.02,,OVC150,0.07,VWS V14.01,2013-01-31 01:40:00,
2013-01-30 20:43:00,59.3,57.0,29.67,South,178,6.0,19.0,92,0.02,,CLR,0.07,VWS V14.01,2013-01-31 01:43:00,
2013-01-30 20:48:00,59.3,56.7,29.67,SSE,147,4.0,28.0,91,0.02,,CLR,0.07,VWS V14.01,2013-01-31 01:48:00,
2013-01-30 20:50:00,59.3,56.7,29.67,SE,137,7.0,28.0,91,0.02,,OVC150,0.07,VWS V14.01,2013-01-31 01:50:00,
2013-01-30 20:53:00,59.2,56.6,29.67,South,184,1.0,13.0,91,0.02,,CLR,0.07,VWS V14.01,2013-01-31 01:53:00,
2013-01-30 20:58:00,59.0,56.7,29.67,ESE,110,7.0,26.0,92,0.02,,CLR,0.07,VWS V14.01,2013-01-31 01:58:00,
2013-01-30 21:00:00,59.0,56.7,29.67,SSE,147,17.0,26.0,92,0.02,,OVC150,0.07,VWS V14.01,2013-01-31 02:00:00,
2013-01-30 21:03:00,58.9,56.6,29.66,WSW,242,2.0,28.0,92,0.01,,FEW060,0.07,VWS V14.01,2013-01-31 02:03:00,
2013-01-30 21:08:00,58.8,56.5,29.67,WSW,239,1.0,28.0,92,0.01,,FEW060,0.07,VWS V14.01,2013-01-31 02:08:00,
2013-01-30 21:10:00,58.7,56.4,29.67,SE,131,12.0,28.0,92,0.01,,OVC150,0.07,VWS V14.01,2013-01-31 02:10:00,
2013-01-30 21:13:00,58.7,56.4,29.67,SSW,211,7.0,17.0,92,0.01,,FEW060,0.07,VWS V14.01,2013-01-31 02:13:00,
2013-01-30 21:18:00,58.5,56.2,29.66,South,183,3.0,17.0,92,0.01,,FEW060,0.07,VWS V14.01,2013-01-31 02:18:00,
2013-01-30 21:20:00,58.4,56.1,29.66,West,275,6.0,17.0,92,0.01,,OVC150,0.07,VWS V14.01,2013-01-31 02:20:00,
2013-01-30 21:23:00,58.3,56.0,29.66,WNW,302,0.0,13.0,92,0.00,,FEW060,0.07,VWS V14.01,2013-01-31 02:23:00,
2013-01-30 21:28:00,58.1,55.8,29.66,SSE,153,6.0,13.0,92,0.00,,FEW060,0.07,VWS V14.01,2013-01-31 02:28:00,
2013-01-30 21:30:00,58.1,55.8,29.65,South,177,4.0,13.0,92,0.00,,OVC150,0.07,VWS V14.01,2013-01-31 02:30:00,
2013-01-30 21:33:00,58.0,55.7,29.65,ESE,123,11.0,11.0,92,0.00,,FEW060,0.07,VWS V14.01,2013-01-31 02:33:00,
2013-01-30 21:38:00,57.9,55.6,29.65,ESE,103,13.0,15.0,92,0.00,,FEW060,0.07,VWS V14.01,2013-01-31 02:38:00,
2013-01-30 21:40:00,57.8,55.5,29.65,SSE,158,0.0,15.0,92,0.00,,OVC150,0.07,VWS V14.01,2013-01-31 02:40:00,
2013-01-30 21:43:00,57.7,55.7,29.65,ESE,102,1.0,7.0,93,0.00,,FEW060,0.07,VWS V14.01,2013-01-31 02:43:00,
2013-01-30 21:48:00,57.7,55.7,29.65,SE,136,0.0,11.0,93,0.00,,FEW060,0.07,VWS V14.01,2013-01-31 02:48:00,
2013-01-30 21:50:00,57.6,55.6,29.65,WSW,252,0.0,11.0,93,0.00,,OVC150,0.07,VWS V14.01,2013-01-31 02:50:00,
2013-01-30 21:53:00,57.5,55.2,29.65,SSW,207,2.0,7.0,92,0.00,,FEW060,0.07,VWS V14.01,2013-01-31 02:53:00,
2013-01-30 21:58:00,57.5,55.5,29.65,SE,135,1.0,14.0,93,0.00,,FEW060,0.07,VWS V14.01,2013-01-31 02:58:00,
2013-01-30 22:00:00,57.5,55.5,29.65,WSW,240,5.0,14.0,93,0.00,,OVC150,0.07,VWS V14.01,2013-01-31 03:00:00,
2013-01-30 22:03:00,57.5,55.5,29.64,SE,142,5.0,10.0,93,0.00,,FEW060,0.07,VWS V14.01,2013-01-31 03:03:00,
2013-01-30 22:08:00,57.5,55.5,29.63,South,174,0.0,12.0,93,0.00,,FEW060,0.07,VWS V14.01,2013-01-31 03:08:00,
2013-01-30 22:10:00,57.5,55.5,29.64,East,80,2.0,12.0,93,0.00,,OVC150,0.07,VWS V14.01,2013-01-31 03:10:00,
2013-01-30 22:13:00,57.5,55.5,29.64,SSW,209,0.0,8.0,93,0.00,,FEW060,0.07,VWS V14.01,2013-01-31 03:13:00,
2013-01-30 22:18:00,57.5,55.5,29.64,SSW,207,6.0,12.0,93,0.00,,FEW060,0.07,VWS V14.01,2013-01-31 03:18:00,
2013-01-30 22:20:00,57.6,55.6,29.64,SSE,165,2.0,19.0,93,0.00,,OVC150,0.07,VWS V14.01,2013-01-31 03:20:00,
2013-01-30 22:23:00,57.6,55.6,29.64,South,180,0.0,9.0,93,0.00,,FEW060,0.07,VWS V14.01,2013-01-31 03:23:00,
2013-01-30 22:28:00,57.6,55.6,29.63,SSE,147,1.0,12.0,93,0.00,,FEW060,0.07,VWS V14.01,2013-01-31 03:28:00,
2013-01-30 22:30:00,57.6,55.3,29.63,South,169,8.0,13.0,92,0.00,,OVC150,0.07,VWS V14.01,2013-01-31 03:30:00,
2013-01-30 22:33:00,57.6,55.6,29.63,NNW,343,4.0,9.0,93,0.00,,FEW060,0.07,VWS V14.01,2013-01-31 03:33:00,
2013-01-30 22:38:00,57.7,55.7,29.62,SSE,157,7.0,14.0,93,0.00,,FEW060,0.07,VWS V14.01,2013-01-31 03:38:00,
2013-01-30 22:40:00,57.7,55.4,29.62,ESE,120,2.0,14.0,92,0.00,,OVC150,0.07,VWS V14.01,2013-01-31 03:40:00,
2013-01-30 22:43:00,57.7,55.4,29.62,West,275,2.0,20.0,92,0.00,,FEW060,0.07,VWS V14.01,2013-01-31 03:43:00,
2013-01-30 22:48:00,57.8,55.5,29.62,ESE,122,2.0,20.0,92,0.00,,FEW060,0.07,VWS V14.01,2013-01-31 03:48:00,
2013-01-30 22:50:00,57.8,55.5,29.62,South,184,9.0,20.0,92,0.00,,OVC150,0.07,VWS V14.01,2013-01-31 03:50:00,
2013-01-30 22:53:00,58.0,55.7,29.62,SSE,150,2.0,9.0,92,0.00,,FEW060,0.07,VWS V14.01,2013-01-31 03:53:00,
2013-01-30 22:58:00,58.0,55.4,29.62,SE,126,2.0,14.0,91,0.00,,FEW060,0.07,VWS V14.01,2013-01-31 03:58:00,
2013-01-30 23:00:00,58.0,55.4,29.61,SSW,192,13.0,14.0,91,0.00,,OVC150,0.07,VWS V14.01,2013-01-31 04:00:00,
2013-01-30 23:03:00,58.1,55.5,29.61,SSE,155,8.0,10.0,91,0.00,,FEW015,0.07,VWS V14.01,2013-01-31 04:03:00,
2013-01-30 23:08:00,58.2,55.6,29.61,SSE,158,9.0,15.0,91,0.00,,FEW015,0.07,VWS V14.01,2013-01-31 04:08:00,
2013-01-30 23:10:00,58.3,55.7,29.60,SSE,159,6.0,15.0,91,0.00,,OVC150,0.07,VWS V14.01,2013-01-31 04:10:00,
2013-01-30 23:13:00,58.4,55.8,29.60,SSW,208,4.0,10.0,91,0.00,,FEW015,0.07,VWS V14.01,2013-01-31 04:13:00,
2013-01-30 23:18:00,58.6,55.7,29.59,South,172,6.0,21.0,90,0.00,,FEW015,0.07,VWS V14.01,2013-01-31 04:18:00,
2013-01-30 23:20:00,58.6,55.7,29.59,SE,143,6.0,21.0,90,0.00,,OVC150,0.07,VWS V14.01,2013-01-31 04:20:00,
2013-01-30 23:23:00,58.7,55.8,29.59,SSW,193,3.0,15.0,90,0.00,,FEW015,0.07,VWS V14.01,2013-01-31 04:23:00,
2013-01-30 23:28:00,58.8,55.6,29.59,SSW,193,3.0,15.0,89,0.00,,FEW015,0.07,VWS V14.01,2013-01-31 04:28:00,
2013-01-30 23:30:00,58.9,55.7,29.59,SSE,164,4.0,15.0,89,0.00,,OVC150,0.07,VWS V14.01,2013-01-31 04:30:00,
2013-01-30 23:33:00,58.9,55.7,29.59,WNW,298,9.0,10.0,89,0.00,,FEW015,0.07,VWS V14.01,2013-01-31 04:33:00,
2013-01-30 23:38:00,59.1,55.9,29.59,SW,214,2.0,10.0,89,0.00,,FEW015,0.07,VWS V14.01,2013-01-31 04:38:00,
2013-01-30 23:40:00,59.1,55.6,29.59,SE,139,7.0,13.0,88,0.00,,OVC150,0.07,VWS V14.01,2013-01-31 04:40:00,
2013-01-30 23:43:00,59.2,55.7,29.58,SE,146,7.0,11.0,88,0.00,,FEW015,0.07,VWS V14.01,2013-01-31 04:43:00,
2013-01-30 23:48:00,59.5,56.0,29.58,SE,132,7.0,16.0,88,0.00,,FEW015,0.07,VWS V14.01,2013-01-31 04:48:00,
2013-01-30 23:50:00,59.5,56.0,29.58,SSE,167,2.0,16.0,88,0.00,,OVC150,0.07,VWS V14.01,2013-01-31 04:50:00,
2013-01-30 23:53:00,59.7,56.2,29.57,SSE,150,8.0,18.0,88,0.00,,FEW015,0.07,VWS V14.01,2013-01-31 04:53:00,
2013-01-30 23:58:00,59.8,56.2,29.56,SW,233,6.0,18.0,88,0.00,,FEW015,0.07,VWS V14.01,2013-01-31 04:58:00,